Date String (YYYY-MM-DD hh:mm:ss) UTC,Instrument flags,absolute air pressure of the measurement (hPa),sample flow rate (lpm),inlet stack bypass flow (lpm),air temperature of the measurement (°C),ambient temperature measured by the external sensor (°C),aerosol sample conditioner tube jacket temperature (°C),OPC LED temperature (°C),internal box temperature (°C),relative humidity of the measurement (%),span deviation,mass concentration of particles derived from Lorenz-Mie calculation of OPC scattering (μg/m³),mass concentration of particles derived from Lorenz-Mie calculation of OPC scattering (μg/m³),mass concentration of particles derived from Lorenz-Mie calculation of OPC scattering (μg/m³)
DateTimeUTC,F1_M11,P_M11,Q1_M11,Q2_M11,T1_M11,T2_M11,T3_M11,T4_M11,T5_M11,U1_M11,ZSPAN_M11,X0_M11,X2_M11,X1_M11
2024-03-20 07:00:00,SystemResetWarning,0827.7,4.99,000.00,022.6,021.7,000.0,031.2,024.4,12.9,0000.0,0005.21,0002.10,0001.05
2024-03-20 07:01:00,SystemResetWarning,0827.7,5.00,000.00,022.6,021.7,000.0,031.2,024.4,12.9,0000.0,0004.95,0002.01,0001.05
2024-03-20 07:02:00,SystemResetWarning,0827.6,5.01,000.00,022.6,021.7,000.0,031.2,024.4,12.9,0000.0,0004.69,0001.91,0001.04
2024-03-20 07:03:00,SystemResetWarning,0827.5,5.01,000.00,022.6,021.7,000.0,031.2,024.4,12.9,0000.0,0004.48,0001.83,0001.04
2024-03-20 07:04:00,SystemResetWarning,0827.6,4.99,000.00,022.5,021.7,000.0,031.2,024.4,12.9,0000.0,0004.15,0001.78,0001.04
2024-03-20 07:05:00,SystemResetWarning,0827.6,4.99,000.00,022.5,021.7,000.0,031.2,024.4,12.9,0000.0,0004.17,0001.80,0001.04
2024-03-20 07:06:00,SystemResetWarning,0827.6,4.99,000.00,022.5,021.7,000.0,031.2,024.4,12.9,0000.0,0004.42,0001.80,0001.03
2024-03-20 07:07:00,SystemResetWarning,0827.5,5.00,000.00,022.5,021.7,000.0,031.2,024.4,12.9,0000.0,0004.23,0001.79,0001.03
2024-03-20 07:08:00,SystemResetWarning,0827.6,5.00,000.00,022.5,021.7,000.0,031.2,024.3,12.9,0000.0,0003.65,0001.78,0001.03
2024-03-20 07:09:00,SystemResetWarning,0827.6,5.01,000.00,022.5,021.7,000.0,031.2,024.3,12.9,0000.0,0003.32,0001.71,0001.03
2024-03-20 07:10:00,SystemResetWarning,0827.6,5.00,000.00,022.5,021.6,000.0,031.1,024.3,13.0,0000.0,0003.31,0001.71,0001.03
2024-03-20 07:11:00,SystemResetWarning,0827.6,4.99,000.00,022.5,021.6,000.0,031.1,024.3,13.0,0000.0,0003.25,0001.71,0001.03
2024-03-20 07:12:00,SystemResetWarning,0827.7,5.00,000.00,022.5,021.6,000.0,031.1,024.3,13.0,0000.0,0003.54,0001.74,0001.04
2024-03-20 07:13:00,SystemResetWarning,0827.6,5.01,000.00,022.5,021.6,000.0,031.1,024.3,13.0,0000.0,0003.77,0001.77,0001.05
2024-03-20 07:14:00,SystemResetWarning,0827.6,5.01,000.00,022.4,021.6,000.0,031.1,024.3,13.0,0000.0,0003.93,0001.83,0001.07
2024-03-20 07:15:00,SystemResetWarning,0827.6,5.01,000.00,022.4,021.6,000.0,031.1,024.3,13.0,0000.0,0003.97,0001.84,0001.07
2024-03-20 07:16:00,SystemResetWarning,0827.6,5.00,000.00,022.4,021.6,000.0,031.1,024.3,13.0,0000.0,0003.87,0001.79,0001.06
2024-03-20 07:17:00,SystemResetWarning,0827.5,4.99,000.00,022.4,021.6,000.0,031.1,024.2,13.1,0000.0,0003.76,0001.83,0001.06
2024-03-20 07:18:00,SystemResetWarning,0827.6,4.99,000.00,022.4,021.5,000.0,031.1,024.2,13.2,0000.0,0003.98,0001.94,0001.07
2024-03-20 07:19:00,SystemResetWarning,0827.5,5.00,000.00,022.4,021.5,000.0,031.1,024.2,13.1,0000.0,0003.91,0001.92,0001.07
2024-03-20 07:20:00,SystemResetWarning,0827.5,5.01,000.00,022.4,021.5,000.0,031.0,024.2,13.2,0000.0,0004.32,0001.96,0001.07
2024-03-20 07:21:00,SystemResetWarning,0827.6,5.01,000.00,022.4,021.5,000.0,031.0,024.2,13.2,0000.0,0004.39,0002.00,0001.08
2024-03-20 07:22:00,SystemResetWarning,0827.5,4.99,000.00,022.3,021.5,000.0,031.0,024.2,13.2,0000.0,0004.67,0002.07,0001.08
2024-03-20 07:23:00,SystemResetWarning,0827.5,5.00,000.00,022.3,021.5,000.0,031.0,024.2,13.2,0000.0,0004.67,0002.09,0001.08
2024-03-20 07:24:00,SystemResetWarning,0827.5,4.99,000.00,022.3,021.5,000.0,031.0,024.2,13.3,0000.0,0004.61,0002.12,0001.08
2024-03-20 07:25:00,SystemResetWarning,0827.5,4.99,000.00,022.3,021.5,000.0,031.0,024.1,13.2,0000.0,0004.49,0002.06,0001.07
2024-03-20 07:26:00,SystemResetWarning,0827.5,4.99,000.00,022.3,021.5,000.0,031.0,024.1,13.3,0000.0,0004.44,0002.00,0001.07
2024-03-20 07:27:00,SystemResetWarning,0827.5,5.00,000.00,022.3,021.5,000.0,031.0,024.1,13.2,0000.0,0004.72,0001.99,0001.08
2024-03-20 07:28:00,SystemResetWarning,0827.5,5.00,000.00,022.3,021.5,000.0,031.0,024.1,13.2,0000.0,0005.81,0001.99,0001.09
2024-03-20 07:29:00,SystemResetWarning,0827.6,5.00,000.00,022.3,021.4,000.0,030.9,024.1,13.2,0000.0,0006.05,0001.94,0001.08
2024-03-20 07:30:00,SystemResetWarning,0827.5,5.00,000.00,022.3,021.4,000.0,030.9,024.1,13.2,0000.0,0006.72,0001.99,0001.08
2024-03-20 07:31:00,SystemResetWarning,0827.5,5.01,000.00,022.3,021.4,000.0,030.9,024.1,13.2,0000.0,0006.53,0002.00,0001.08
2024-03-20 07:32:00,SystemResetWarning,0827.5,5.01,000.00,022.2,021.4,000.0,030.9,024.1,13.1,0000.0,0007.18,0002.04,0001.09
2024-03-20 07:33:00,SystemResetWarning,0827.5,4.99,000.00,022.2,021.4,000.0,030.9,024.1,13.2,0000.0,0007.66,0002.02,0001.10
2024-03-20 07:34:00,SystemResetWarning,0827.5,4.99,000.00,022.2,021.4,000.0,030.9,024.0,13.2,0000.0,0007.56,0001.95,0001.09
2024-03-20 07:35:00,SystemResetWarning,0827.5,4.99,000.00,022.2,021.4,000.0,030.9,024.0,13.2,0000.0,0007.48,0001.93,0001.09
2024-03-20 07:36:00,SystemResetWarning,0827.6,5.01,000.00,022.2,021.3,000.0,030.9,024.0,13.2,0000.0,0007.61,0002.01,0001.08
2024-03-20 07:37:00,SystemResetWarning,0827.5,5.01,000.00,022.2,021.3,000.0,030.9,024.0,13.2,0000.0,0007.60,0002.01,0001.07
2024-03-20 07:38:00,SystemResetWarning,0827.5,5.01,000.00,022.2,021.3,000.0,030.8,024.0,13.2,0000.0,0007.57,0002.04,0001.07
2024-03-20 07:39:00,SystemResetWarning,0827.5,5.00,000.00,022.2,021.3,000.0,030.8,024.0,13.2,0000.0,0006.78,0002.12,0001.07
2024-03-20 07:40:00,SystemResetWarning,0827.5,5.00,000.00,022.1,021.3,000.0,030.8,024.0,13.2,0000.0,0006.55,0002.09,0001.07
2024-03-20 07:41:00,SystemResetWarning,0827.6,5.00,000.00,022.1,021.3,000.0,030.8,024.0,13.2,0000.0,0005.90,0002.01,0001.08
2024-03-20 07:42:00,SystemResetWarning,0827.5,5.00,000.00,022.1,021.3,000.0,030.8,024.0,13.3,0000.0,0006.07,0002.00,0001.08
2024-03-20 07:43:00,SystemResetWarning,0827.6,5.00,000.00,022.1,021.3,000.0,030.8,023.9,13.3,0000.0,0005.70,0002.03,0001.07
2024-03-20 07:44:00,SystemResetWarning,0827.6,5.00,000.00,022.1,021.3,000.0,030.8,023.9,13.2,0000.0,0004.69,0002.03,0001.05
2024-03-20 07:45:00,SystemResetWarning,0827.6,5.00,000.00,022.1,021.2,000.0,030.8,023.9,13.2,0000.0,0005.72,0002.04,0001.05
2024-03-20 07:46:00,SystemResetWarning,0827.6,4.99,000.00,022.1,021.2,000.0,030.8,023.9,13.3,0000.0,0006.44,0002.06,0001.05
2024-03-20 07:47:00,SystemResetWarning,0827.5,5.00,000.00,022.1,021.2,000.0,030.7,023.9,13.3,0000.0,0006.24,0001.99,0001.05
2024-03-20 07:48:00,SystemResetWarning,0827.5,4.99,000.00,022.1,021.2,000.0,030.7,023.9,13.2,0000.0,0006.35,0002.02,0001.06
2024-03-20 07:49:00,SystemResetWarning,0827.6,5.00,000.00,022.0,021.2,000.0,030.7,023.9,13.2,0000.0,0006.40,0002.03,0001.06
2024-03-20 07:50:00,SystemResetWarning,0827.5,5.00,000.00,022.0,021.2,000.0,030.7,023.9,13.2,0000.0,0006.11,0001.93,0001.06
2024-03-20 07:51:00,SystemResetWarning,0827.5,4.99,000.00,022.0,021.2,000.0,030.7,023.9,13.3,0000.0,0007.22,0001.88,0001.06
2024-03-20 07:52:00,SystemResetWarning,0827.6,5.00,000.00,022.0,021.2,000.0,030.7,023.9,13.3,0000.0,0007.31,0001.96,0001.06
2024-03-20 07:53:00,SystemResetWarning,0827.5,5.00,000.00,022.0,021.2,000.0,030.7,023.8,13.3,0000.0,0007.15,0001.92,0001.06
2024-03-20 07:54:00,SystemResetWarning,0827.5,5.00,000.00,022.0,021.1,000.0,030.7,023.8,13.3,0000.0,0007.09,0001.87,0001.05
2024-03-20 07:55:00,SystemResetWarning,0827.5,5.02,000.00,022.0,021.1,000.0,030.7,023.8,13.3,0000.0,0007.18,0001.89,0001.06
2024-03-20 07:56:00,SystemResetWarning,0827.6,5.00,000.00,022.0,021.1,000.0,030.6,023.8,13.3,0000.0,0006.62,0001.93,0001.07
2024-03-20 07:57:00,SystemResetWarning,0827.6,5.00,000.00,022.0,021.1,000.0,030.6,023.8,13.2,0000.0,0005.76,0001.91,0001.06
2024-03-20 07:58:00,SystemResetWarning,0827.6,4.99,000.00,022.0,021.1,000.0,030.6,023.8,13.3,0000.0,0006.38,0001.92,0001.05
2024-03-20 07:59:00,SystemResetWarning,0827.7,4.99,000.00,021.9,021.1,000.0,030.6,023.8,13.4,0000.0,0006.38,0001.91,0001.04
